Theta_e
309 309 309 309 309 309 310 310 310 310 311 312 314 316 318 320 320 320 320 320 319 318 318 318 318 318 318 334 337 336 339 341 342 349 352 353 354 355 355 348 346 347 345 346 346 346 347
310 310 310 310 309 309 309 309 309 310 310 311 312 314 316 319 320 320 320 320 319 318 318 317 318 318 320 334 338 335 343 344 346 351 352 350 350 349 350 347 346 346 345 345 345 346 346
308 309 310 310 310 310 310 310 309 310 310 310 311 312 314 317 320 320 320 320 320 319 318 317 317 318 325 332 338 336 341 347 348 350 351 352 350 350 350 348 344 345 346 346 346 346 346
308 308 308 308 309 310 311 311 310 310 310 310 310 311 312 315 318 320 320 320 320 319 318 317 317 317 332 328 336 339 343 346 348 349 350 349 350 349 349 348 345 348 346 348 347 346 344
311 310 309 308 308 308 309 311 311 312 311 311 310 311 311 313 317 320 320 320 320 319 318 316 318 323 331 329 332 339 344 346 347 349 349 349 348 348 347 349 351 348 350 348 352 346 346
312 312 311 311 310 309 309 309 310 311 312 312 311 311 311 312 315 319 320 320 319 319 317 316 319 326 330 330 331 338 342 345 347 349 349 349 348 348 348 350 352 352 350 351 352 347 344
313 313 313 312 312 311 310 309 309 309 311 312 313 312 311 312 314 319 320 319 320 322 325 323 328 331 333 332 332 337 340 343 342 346 350 349 348 349 350 348 346 342 347 348 349 346 348
313 313 312 312 312 311 310 310 310 309 310 311 313 313 312 312 313 318 320 326 330 329 330 325 324 327 332 331 333 336 338 338 342 346 347 349 349 347 347 346 343 341 346 350 349 348 348
313 312 312 312 311 311 310 310 310 309 310 310 312 313 313 312 313 317 320 323 327 328 328 328 325 326 330 331 333 334 336 336 339 341 344 347 346 346 345 345 343 344 347 350 349 348 346
311 310 310 310 310 309 309 309 309 309 309 310 311 313 314 312 317 324 323 324 325 327 328 330 329 325 326 328 330 333 334 335 337 338 339 342 343 345 346 344 343 341 342 339 344 347 349
309 309 309 308 308 308 308 308 309 309 309 310 310 313 314 312 327 325 327 326 327 328 336 332 331 328 326 327 329 331 333 333 336 336 336 339 341 343 346 341 343 341 339 338 341 341 345
309 308 308 307 307 307 307 308 308 309 309 310 310 312 313 315 314 325 325 326 328 331 334 334 331 330 327 327 328 330 332 332 334 335 336 337 338 342 344 342 342 341 339 339 339 342 343
308 308 307 307 307 307 307 307 308 308 309 310 310 312 314 315 323 322 323 327 331 333 334 336 334 333 330 328 328 330 332 332 333 335 335 335 336 338 340 339 341 339 339 340 341 345 347
307 307 307 307 307 306 307 307 308 308 309 311 311 313 315 316 319 322 325 329 333 333 333 336 334 332 330 329 328 328 330 331 332 334 334 335 336 336 337 339 340 340 341 343 349 347 345
306 306 306 306 306 306 306 307 307 308 309 311 312 320 318 319 315 322 327 331 333 335 335 335 335 331 330 329 329 329 330 330 332 333 333 334 335 336 337 338 339 339 341 340 341 345 342
306 306 306 306 306 306 306 307 307 308 308 310 313 321 326 326 319 323 329 329 332 333 334 336 337 334 333 331 330 331 330 331 330 332 333 333 334 336 335 335 337 338 339 339 340 341 339
306 305 305 305 306 306 306 306 307 308 309 311 316 326 328 325 320 323 329 331 332 331 333 334 337 337 337 335 333 332 331 332 332 331 332 333 332 333 335 334 334 336 336 335 337 337 339
305 305 305 305 306 306 306 306 306 308 309 316 325 329 329 325 322 323 327 329 330 332 333 332 335 336 337 337 336 336 334 333 332 332 331 331 331 332 334 334 334 335 336 334 333 337 337
305 305 305 305 305 306 306 306 306 308 310 314 327 327 327 326 324 325 326 327 329 332 333 333 333 335 335 336 337 335 334 333 332 332 333 333 331 331 333 333 335 334 334 333 334 335 339
305 305 305 305 305 306 306 306 306 309 311 317 328 333 327 325 323 324 326 327 328 329 332 333 333 334 335 335 336 338 336 333 333 333 332 333 334 335 332 335 336 337 334 333 334 335 335
305 305 305 306 306 306 306 306 306 309 314 322 326 332 334 329 326 325 326 328 329 329 332 332 333 333 334 335 336 337 337 337 334 331 333 334 336 335 335 334 334 336 337 337 335 336 335
304 305 307 307 307 306 306 306 306 308 321 324 326 330 330 333 329 328 324 326 328 329 330 331 332 332 333 333 334 336 337 338 337 338 336 334 340 336 337 336 336 336 336 335 336 335 336
305 308 308 309 308 307 306 306 306 307 315 325 322 323 327 330 331 330 329 328 328 329 329 330 331 332 333 332 333 333 334 335 339 339 339 337 336 341 339 337 338 339 336 336 335 335 335
305 308 308 308 308 308 306 306 306 305 308 321 323 321 326 329 329 332 332 329 328 329 331 330 331 332 332 333 332 332 333 334 335 337 338 342 346 341 341 342 343 340 339 339 340 339 338
305 306 307 307 307 308 307 306 306 306 305 317 321 319 324 328 329 331 333 332 331 330 331 330 330 332 331 331 332 333 333 333 334 334 337 337 338 339 343 341 340 338 338 341 340 340 340
306 305 305 306 307 308 308 307 306 306 306 311 320 317 319 325 327 327 329 331 331 331 331 330 329 331 330 331 331 336 333 333 332 333 334 334 338 338 339 339 340 341 340 337 337 341 341
306 306 305 306 307 308 308 308 308 306 306 311 319 317 318 320 322 322 324 328 330 331 332 332 331 331 330 331 332 332 332 332 334 334 338 336 339 337 339 338 336 338 339 338 340 345 344
307 305 305 306 307 307 307 308 308 308 306 306 317 319 318 318 317 318 320 320 327 328 331 331 333 332 331 333 331 331 332 332 334 334 339 339 338 340 340 340 337 335 339 345 345 343 343
308 306 305 305 306 306 306 307 307 309 308 306 315 315 318 318 319 319 319 318 319 324 327 328 330 332 335 337 334 333 333 333 339 335 336 338 337 339 339 338 336 333 334 335 338 341 342
Wind_Speed
14 13 12 12 12 11 11 11 10 9 9 7 6 5 5 4 4 4 4 5 5 5 4 4 5 5 7 8 5 2 7 8 7 8 9 13 8 16 15 13 10 14 8 14 9 8 10
15 14 14 13 12 12 11 11 11 10 9 8 7 6 5 5 4 4 5 5 6 5 5 4 4 6 6 13 5 3 7 8 9 6 10 10 14 15 14 14 12 4 8 13 8 9 6
16 15 15 14 13 13 12 12 11 11 10 9 8 7 6 5 5 5 5 5 6 5 5 5 4 6 8 9 4 4 9 8 11 10 14 10 10 13 14 15 3 6 6 9 13 10 6
17 17 16 15 15 14 13 12 11 11 11 10 9 8 7 6 4 6 5 5 5 6 5 5 4 5 8 7 6 9 12 12 12 13 14 12 12 15 16 9 15 12 11 6 14 13 12
16 16 16 16 15 15 14 14 13 12 12 11 10 9 8 6 4 5 6 5 5 5 5 5 2 7 15 8 11 12 14 13 11 13 14 15 14 17 17 9 2 4 3 14 16 15 13
16 16 16 16 16 16 15 15 14 14 12 12 11 10 8 7 4 5 5 4 4 5 5 5 8 8 18 15 11 14 15 13 12 12 15 17 18 3 8 9 6 9 6 11 19 26 10
16 17 16 16 17 16 16 16 15 15 14 13 12 10 8 7 5 5 6 5 4 5 14 16 17 17 6 10 13 15 15 14 13 15 14 18 13 6 14 12 14 10 17 5 11 6 18
16 16 17 17 17 17 17 16 16 16 15 14 12 11 9 7 5 8 11 8 9 8 10 26 26 21 13 12 13 15 15 15 17 14 17 16 16 4 17 17 8 12 7 5 4 14 13
17 17 17 17 18 18 17 17 17 17 16 15 12 11 9 7 5 9 13 16 11 9 15 20 29 24 18 14 18 19 19 18 17 15 17 17 7 13 14 18 13 7 1 10 6 9 6
16 17 18 18 18 18 18 18 17 17 17 16 14 10 9 4 1 3 12 9 10 7 8 19 29 26 26 21 22 21 22 21 16 18 17 15 11 10 20 17 12 6 5 10 4 9 7
18 18 17 18 18 19 18 18 18 17 17 17 15 11 8 5 4 7 4 3 5 6 6 16 22 13 27 28 12 23 20 18 20 18 14 18 16 13 12 14 12 12 5 12 11 10 12
18 19 19 18 18 18 19 19 19 18 18 17 16 12 8 8 12 10 2 4 4 6 11 8 11 11 19 28 22 20 24 21 20 19 19 20 22 11 17 8 6 12 12 16 18 8 4
17 18 19 19 19 18 18 19 19 19 19 17 16 14 10 11 7 5 6 7 6 10 7 10 14 13 17 19 20 20 16 18 15 16 16 19 21 16 13 15 15 14 15 13 9 6 6
18 18 18 19 19 19 19 19 19 19 19 17 15 14 13 13 10 7 6 9 10 13 16 4 10 13 16 17 17 22 16 15 20 20 18 14 14 24 18 17 16 17 14 8 16 3 11
19 19 18 19 19 19 20 20 19 18 19 18 13 10 11 8 16 10 14 12 11 17 9 2 6 14 15 18 13 20 19 17 17 19 20 18 19 11 4 20 19 16 13 19 18 28 17
18 18 19 18 19 19 20 20 19 17 17 18 12 7 13 10 13 13 11 18 19 23 6 12 13 10 12 18 19 17 18 17 17 17 21 18 17 14 7 7 12 13 12 11 13 14 11
19 19 18 18 19 19 20 21 20 18 15 13 8 6 14 11 12 15 13 18 20 28 6 8 16 17 13 15 17 17 14 17 14 14 15 15 13 18 14 7 13 13 14 14 17 14 13
19 19 19 18 18 19 19 20 21 19 13 9 7 8 10 14 13 15 14 21 26 24 11 8 16 14 17 13 16 12 13 15 18 10 14 14 12 13 18 12 16 17 16 11 9 11 13
18 19 19 19 19 19 18 18 20 20 18 13 6 12 7 14 8 12 18 22 25 23 16 12 12 14 15 13 14 12 9 9 13 5 4 6 9 12 16 13 12 10 14 13 19 15 16
18 18 19 20 20 19 19 17 17 19 14 11 6 4 9 15 19 19 16 17 19 26 22 13 15 15 12 11 13 15 12 9 10 8 5 6 13 16 14 14 7 3 11 16 15 12 12
18 19 20 20 20 20 19 18 16 15 10 9 6 8 17 5 13 17 18 19 15 18 15 16 15 16 15 14 15 17 14 14 14 12 6 7 15 18 20 20 8 13 6 24 17 12 14
18 19 20 21 20 20 20 20 18 13 6 4 10 10 19 21 15 8 13 17 18 19 12 14 14 15 16 18 18 19 19 11 14 15 13 15 14 15 18 20 19 13 16 14 15 11 11
18 18 20 21 21 20 20 19 19 17 5 4 12 9 11 14 13 11 11 12 13 17 19 10 9 11 12 13 15 21 17 20 19 8 15 15 14 13 17 18 17 17 18 15 15 13 14
17 18 19 21 22 21 20 19 18 17 14 7 11 13 10 10 13 12 8 10 11 7 7 14 9 8 13 15 18 18 20 19 19 19 12 13 12 10 13 14 16 18 5 5 24 18 8
16 17 18 20 21 22 21 19 18 16 13 8 10 9 10 8 18 12 14 8 10 16 9 15 18 10 7 13 10 12 13 18 22 22 14 17 12 10 10 15 19 23 16 4 5 9 30
16 16 18 18 19 21 21 21 18 17 15 8 6 8 7 10 9 12 15 12 10 11 14 19 19 6 8 9 11 14 13 17 19 22 21 15 12 9 14 17 20 13 11 22 17 15 14
16 16 17 18 18 19 20 20 20 18 15 12 1 12 8 12 7 10 11 10 14 13 9 9 7 4 12 9 11 13 15 17 17 17 17 17 13 14 15 17 16 19 8 3 9 1 14
16 16 16 16 16 17 19 20 19 18 17 12 2 11 10 9 19 12 9 11 13 12 9 16 7 7 9 10 11 12 13 15 10 11 3 6 3 10 11 17 17 20 8 6 7 6 7
16 16 15 16 16 17 18 19 20 18 16 14 8 10 11 13 17 20 19 17 14 11 10 12 14 8 7 6 4 6 12 12 12 8 4 7 5 6 10 1 4 11 9 10 9 5 3
Wind_Direction
33 29 27 26 23 22 21 19 16 13 11 7 350 334 314 298 289 273 259 257 257 249 250 263 281 290 298 278 238 240 182 187 194 185 246 264 228 226 226 20 331 285 62 110 124 150 149
33 29 25 21 21 18 15 15 13 9 6 2 354 335 317 300 283 270 261 258 260 257 254 255 268 282 295 273 274 208 184 188 180 188 238 292 323 334 320 180 189 310 148 124 169 100 133
31 30 26 21 17 14 13 10 8 4 0 357 352 341 321 299 282 268 255 253 256 247 250 258 265 286 271 268 257 238 188 199 193 242 270 305 310 305 311 332 273 247 185 174 142 171 172
28 26 24 22 18 13 8 5 3 359 355 351 348 343 326 307 274 261 256 254 251 247 237 244 257 282 263 204 197 200 199 217 230 252 270 290 296 298 282 266 38 340 58 332 296 186 135
21 20 19 18 15 11 6 3 360 355 352 348 344 341 332 313 276 245 250 250 243 245 248 235 221 293 268 230 205 212 210 219 235 253 263 274 281 279 45 351 26 182 186 234 331 242 159
12 13 11 9 8 6 4 0 356 353 349 345 343 340 333 319 277 234 224 228 236 236 238 252 232 266 239 221 211 206 210 223 241 253 260 259 260 220 156 229 234 155 196 187 199 267 228
3 2 3 1 359 359 357 355 353 350 348 344 341 337 331 316 271 225 202 189 251 242 211 217 205 215 138 227 184 202 206 221 244 249 261 251 250 228 202 254 260 278 210 216 245 123 262
357 356 354 353 352 352 349 349 346 346 344 343 339 333 327 314 262 224 212 215 307 318 280 231 247 236 247 190 197 208 199 217 224 239 229 242 243 82 329 277 276 295 7 332 284 168 270
351 350 349 347 345 345 344 341 340 341 340 338 338 330 322 314 266 239 229 238 308 302 281 266 217 228 208 204 221 205 203 217 242 228 261 259 242 145 251 275 273 89 96 222 215 272 227
346 346 344 343 342 339 338 336 335 335 334 334 332 328 314 307 245 240 246 259 265 292 278 245 201 219 219 215 241 242 200 221 230 258 255 267 251 198 225 258 289 279 272 294 183 273 239
342 342 342 339 338 336 334 332 331 330 329 328 326 323 305 257 240 224 32 209 239 265 274 144 181 200 207 208 227 213 224 211 244 236 239 260 275 239 236 270 280 294 304 292 282 273 121
341 340 340 340 338 335 332 331 328 327 324 323 320 314 297 273 240 195 221 249 263 234 246 162 140 192 193 209 219 261 204 215 234 249 270 271 272 286 279 295 228 281 289 267 253 258 238
344 342 340 339 339 338 334 330 327 326 322 317 312 302 276 243 188 235 250 224 222 247 170 173 177 195 210 201 215 237 186 214 223 234 248 255 261 261 259 274 267 251 253 263 250 237 299
348 345 343 340 339 338 337 332 327 325 321 312 306 294 269 234 212 262 210 223 245 238 255 90 185 189 204 214 205 224 209 224 221 243 268 231 239 222 221 228 250 265 301 298 276 22 268
349 345 344 343 342 340 338 335 330 327 323 313 311 302 270 225 215 192 214 221 224 259 327 312 209 185 200 212 213 220 216 236 223 210 241 266 269 296 234 218 221 248 247 249 276 227 229
352 347 345 345 344 343 340 338 333 330 327 318 313 258 247 199 202 186 220 238 239 248 336 323 284 208 225 201 209 218 216 223 249 234 216 248 273 282 302 264 262 263 284 288 281 278 278
354 350 349 347 347 346 344 340 336 334 333 319 301 236 148 170 171 205 222 233 245 264 277 265 281 284 267 253 207 223 227 238 222 240 240 242 239 268 268 212 255 229 244 249 272 283 295
356 353 351 351 350 349 349 345 341 339 345 329 269 260 174 172 194 221 231 239 259 273 231 244 270 291 301 304 274 236 230 236 223 221 230 223 262 236 260 227 221 243 243 253 238 258 259
358 355 354 354 352 352 352 349 346 343 345 345 263 223 177 191 226 229 229 247 252 259 256 264 240 264 269 295 293 291 272 257 130 171 343 270 222 260 267 253 195 231 249 258 275 259 267
358 359 356 356 354 356 355 352 349 342 341 332 284 236 159 210 240 268 270 240 237 245 262 244 283 279 285 277 271 279 270 182 163 192 80 311 280 271 257 242 48 267 252 245 257 274 295
358 1 358 357 357 358 359 355 352 345 337 329 241 262 358 200 218 234 257 270 265 240 231 232 259 268 272 269 265 268 248 280 169 148 215 234 254 277 287 290 277 275 209 272 238 267 289
359 3 3 0 359 1 2 1 1 356 349 342 330 346 340 301 295 299 245 250 270 278 256 228 221 257 268 245 257 276 277 273 255 176 204 221 242 256 274 287 292 271 268 274 270 286 291
1 6 8 7 3 3 5 6 6 11 10 359 351 325 297 290 279 269 258 269 242 256 271 295 289 274 285 267 331 313 303 305 257 310 217 211 245 247 254 269 272 266 269 268 262 272 285
1 5 6 10 9 7 7 8 8 13 22 22 353 330 286 281 268 272 293 272 265 275 308 281 274 265 288 322 311 292 276 275 278 281 276 248 220 253 276 297 271 278 71 18 328 322 325
359 360 1 5 5 8 8 9 7 7 9 33 16 345 320 299 308 338 349 273 289 286 271 273 280 301 304 301 285 266 262 266 262 265 253 278 302 283 256 254 267 278 301 19 144 290 286
356 354 355 359 1 2 5 8 8 4 3 14 42 347 313 297 29 350 324 320 305 286 253 226 244 244 291 275 261 245 252 254 243 241 251 251 253 269 272 265 266 292 55 342 324 311 340
352 353 352 355 358 0 3 3 5 5 5 5 43 344 327 295 288 356 341 331 317 325 298 323 249 189 239 253 258 256 255 238 256 254 233 230 232 239 250 244 255 332 34 12 220 289 345
346 349 350 350 353 357 2 3 2 1 0 9 288 340 352 303 293 303 311 305 313 293 298 358 290 240 258 249 249 265 269 275 280 299 53 13 302 302 303 257 226 10 0 13 355 348 2
342 342 342 343 343 345 351 355 359 357 354 352 334 319 322 292 266 296 285 272 263 272 309 310 324 313 358 312 317 291 277 284 295 286 253 178 195 182 244 75 136 34 22 360 339 345 10